AAY8912 KCLE-KATW

Flight info

Callsign AAY8912
Flight time 1h 5m
Altitude 32000
Route GTLKE5 ALPHE VIO
Aircraft A320/M-SDE3FGHIRWY/LB1

Departure

Time 2026-05-06 19:34
Airport Cleveland Hopkins International Airport (KCLE)

Arrival

Time 2026-05-06 20:39
Airport Appleton International Airport (KATW)
Time Latitude Longitude Altitude Speed Heading
2026-05-06 19:24 41.40732 -81.84300 756 ft 0 kts 53°
2026-05-06 19:26 41.40731 -81.84301 756 ft 2 kts 53°
2026-05-06 19:27 41.40719 -81.84322 756 ft 4 kts 55°
2026-05-06 19:27 41.40706 -81.84353 756 ft 4 kts 64°
2026-05-06 19:27 41.40695 -81.84386 756 ft 4 kts 70°
2026-05-06 19:27 41.40685 -81.84418 756 ft 4 kts 53°
2026-05-06 19:28 41.40672 -81.84432 756 ft 1 kts
2026-05-06 19:28 41.40668 -81.84432 756 ft 2 kts
2026-05-06 19:30 41.40681 -81.84432 756 ft 8 kts 360°
2026-05-06 19:30 41.40748 -81.84432 754 ft 10 kts 360°
2026-05-06 19:30 41.40826 -81.84433 754 ft 12 kts 358°
2026-05-06 19:31 41.40905 -81.84416 756 ft 12 kts 31°
2026-05-06 19:31 41.40983 -81.84373 756 ft 13 kts 12°
2026-05-06 19:31 41.41123 -81.84383 756 ft 12 kts
2026-05-06 19:32 41.41206 -81.84364 756 ft 13 kts 32°
2026-05-06 19:32 41.41273 -81.84275 756 ft 14 kts 47°
2026-05-06 19:32 41.41342 -81.84168 755 ft 16 kts 50°
2026-05-06 19:32 41.41408 -81.84096 755 ft 10 kts 11°
2026-05-06 19:33 41.41470 -81.84152 755 ft 12 kts 319°
2026-05-06 19:33 41.41501 -81.84250 754 ft 14 kts 246°
2026-05-06 19:33 41.41352 -81.84493 757 ft 67 kts 230°
2026-05-06 19:33 41.40904 -81.85197 757 ft 129 kts 230°
2026-05-06 19:34 41.40216 -81.86288 799 ft 172 kts 230°
2026-05-06 19:34 41.39481 -81.87471 1595 ft 165 kts 236°
2026-05-06 19:34 41.38795 -81.88702 2305 ft 166 kts 248°
2026-05-06 19:34 41.38500 -81.90218 2734 ft 179 kts 267°
2026-05-06 19:35 41.38427 -81.91952 3070 ft 196 kts 271°
2026-05-06 19:35 41.38432 -81.93856 3439 ft 217 kts 273°
2026-05-06 19:35 41.38741 -81.95908 3814 ft 239 kts 297°
2026-05-06 19:35 41.39591 -81.97874 4545 ft 248 kts 300°
2026-05-06 19:36 41.40456 -81.99867 5479 ft 250 kts 299°
2026-05-06 19:36 41.41318 -82.01877 6436 ft 251 kts 298°
2026-05-06 19:36 41.42182 -82.03907 7303 ft 253 kts 297°
2026-05-06 19:36 41.43050 -82.05957 8143 ft 256 kts 296°
2026-05-06 19:37 41.43935 -82.08044 8975 ft 260 kts 295°
2026-05-06 19:37 41.44832 -82.10156 9810 ft 264 kts 295°
2026-05-06 19:37 41.45747 -82.12311 10406 ft 275 kts 294°
2026-05-06 19:37 41.46390 -82.13829 10564 ft 291 kts 294°
2026-05-06 19:38 41.47781 -82.17116 11055 ft 313 kts 294°
2026-05-06 19:38 41.48870 -82.19673 11734 ft 319 kts 294°
2026-05-06 19:38 41.49972 -82.22252 12470 ft 322 kts 293°
2026-05-06 19:38 41.51071 -82.24833 13182 ft 325 kts 292°
2026-05-06 19:39 41.52194 -82.27471 13914 ft 329 kts 292°
2026-05-06 19:39 41.53267 -82.29994 14513 ft 333 kts 292°
2026-05-06 19:39 41.54413 -82.32692 15209 ft 335 kts 292°
2026-05-06 19:39 41.55567 -82.35399 15911 ft 336 kts 292°
2026-05-06 19:40 41.56725 -82.38121 16593 ft 337 kts 292°
2026-05-06 19:40 41.57887 -82.40860 17270 ft 339 kts 292°
2026-05-06 19:40 41.59050 -82.43611 17883 ft 341 kts 292°
2026-05-06 19:40 41.60221 -82.46385 18476 ft 344 kts 292°
2026-05-06 19:41 41.61396 -82.49175 19036 ft 345 kts 292°
2026-05-06 19:41 41.62570 -82.51966 19620 ft 345 kts 292°
2026-05-06 19:41 41.63746 -82.54764 20213 ft 345 kts 292°
2026-05-06 19:41 41.64919 -82.57566 20777 ft 345 kts 292°
2026-05-06 19:42 41.66093 -82.60371 21351 ft 346 kts 291°
2026-05-06 19:42 41.67268 -82.63174 21906 ft 346 kts 291°
2026-05-06 19:42 41.68447 -82.65986 22451 ft 347 kts 291°
2026-05-06 19:42 41.69614 -82.68765 22982 ft 347 kts 291°
2026-05-06 19:43 41.70798 -82.71586 23514 ft 348 kts 291°
2026-05-06 19:43 41.71983 -82.74412 23960 ft 348 kts 291°
2026-05-06 19:43 41.73168 -82.77242 24406 ft 348 kts 291°
2026-05-06 19:43 41.74350 -82.80073 24868 ft 348 kts 291°
2026-05-06 19:44 41.75533 -82.82904 25299 ft 348 kts 291°
2026-05-06 19:44 41.76713 -82.85737 25768 ft 348 kts 291°
2026-05-06 19:44 41.77898 -82.88586 26075 ft 352 kts 291°
2026-05-06 19:44 41.79091 -82.91466 26419 ft 354 kts 290°
2026-05-06 19:45 41.80289 -82.94354 26834 ft 355 kts 290°
2026-05-06 19:45 41.81490 -82.97251 27289 ft 356 kts 290°
2026-05-06 19:45 41.82690 -83.00148 27744 ft 355 kts 290°
2026-05-06 19:45 41.83890 -83.03044 28158 ft 355 kts 290°
2026-05-06 19:46 41.85093 -83.05944 28585 ft 355 kts 289°
2026-05-06 19:46 41.86291 -83.08838 28986 ft 355 kts 289°
2026-05-06 19:46 41.87486 -83.11732 29365 ft 354 kts 289°
2026-05-06 19:46 41.88664 -83.14596 29741 ft 354 kts 289°
2026-05-06 19:47 41.89867 -83.17526 30121 ft 355 kts 289°
2026-05-06 19:47 41.91046 -83.20395 30402 ft 355 kts 289°
2026-05-06 19:47 41.92242 -83.23301 30673 ft 356 kts 289°
2026-05-06 19:47 41.93440 -83.26211 30980 ft 355 kts 289°
2026-05-06 19:48 41.94631 -83.29109 31354 ft 353 kts 289°
2026-05-06 19:48 41.95813 -83.31991 31733 ft 351 kts 288°
2026-05-06 19:48 41.96988 -83.34856 31951 ft 350 kts 288°
2026-05-06 19:48 41.98150 -83.37675 31986 ft 340 kts 288°
2026-05-06 19:49 42.00405 -83.43177 31990 ft 334 kts 288°
2026-05-06 19:49 42.02632 -83.48676 31983 ft 336 kts 288°
2026-05-06 19:50 42.04880 -83.54222 32018 ft 338 kts 288°
2026-05-06 19:50 42.06761 -83.58850 31982 ft 340 kts 289°
2026-05-06 19:51 42.09405 -83.65347 31975 ft 341 kts 289°
2026-05-06 19:51 42.11669 -83.70948 31975 ft 340 kts 288°
2026-05-06 19:52 42.13561 -83.75644 31978 ft 340 kts 288°
2026-05-06 19:52 42.15811 -83.81219 31982 ft 340 kts 288°
2026-05-06 19:53 42.18069 -83.86829 31980 ft 340 kts 288°
2026-05-06 19:53 42.20329 -83.92439 32000 ft 340 kts 288°
2026-05-06 19:54 42.22582 -83.98056 31988 ft 340 kts 288°
2026-05-06 19:54 42.24829 -84.03676 31982 ft 340 kts 288°
2026-05-06 19:55 42.27073 -84.09316 31987 ft 342 kts 289°
2026-05-06 19:55 42.29333 -84.15008 31967 ft 345 kts 289°
2026-05-06 19:56 42.31599 -84.20694 31962 ft 346 kts 289°
2026-05-06 19:56 42.33883 -84.26438 31963 ft 347 kts 289°
2026-05-06 19:57 42.36173 -84.32202 31980 ft 349 kts 289°
2026-05-06 19:57 42.38468 -84.37997 31982 ft 350 kts 289°
2026-05-06 19:58 42.40761 -84.43810 31984 ft 350 kts 289°
2026-05-06 19:58 42.43054 -84.49627 31970 ft 350 kts 289°
2026-05-06 19:59 42.45281 -84.55484 31970 ft 349 kts 287°
2026-05-06 19:59 42.47382 -84.61368 31975 ft 349 kts 287°
2026-05-06 20:00 42.49482 -84.67294 32028 ft 349 kts 287°
2026-05-06 20:00 42.51607 -84.73262 31959 ft 353 kts 288°
2026-05-06 20:01 42.53761 -84.79274 31952 ft 355 kts 288°
2026-05-06 20:01 42.55924 -84.85305 31951 ft 357 kts 288°
2026-05-06 20:02 42.58096 -84.91365 31952 ft 358 kts 288°
2026-05-06 20:02 42.60261 -84.97455 31955 ft 358 kts 287°
2026-05-06 20:03 42.62426 -85.03551 31959 ft 359 kts 287°
2026-05-06 20:03 42.64579 -85.09619 31981 ft 360 kts 287°
2026-05-06 20:04 42.66765 -85.15792 31978 ft 361 kts 288°
2026-05-06 20:04 42.68924 -85.21899 31976 ft 361 kts 287°
2026-05-06 20:05 42.71091 -85.28054 31984 ft 361 kts 287°
2026-05-06 20:05 42.73255 -85.34217 31985 ft 361 kts 287°
2026-05-06 20:06 42.75415 -85.40383 31986 ft 361 kts 287°
2026-05-06 20:06 42.77570 -85.46556 32012 ft 361 kts 287°
2026-05-06 20:07 42.80135 -85.52517 32000 ft 371 kts 296°
2026-05-06 20:07 42.83124 -85.58239 31997 ft 371 kts 296°
2026-05-06 20:08 42.86096 -85.63942 31994 ft 371 kts 295°
2026-05-06 20:08 42.89078 -85.69686 31988 ft 371 kts 295°
2026-05-06 20:09 42.92055 -85.75435 31997 ft 371 kts 295°
2026-05-06 20:09 42.95031 -85.81187 32015 ft 371 kts 295°
2026-05-06 20:10 42.98007 -85.86952 32010 ft 372 kts 295°
2026-05-06 20:10 43.00989 -85.92741 31998 ft 372 kts 295°
2026-05-06 20:11 43.03968 -85.98526 31999 ft 372 kts 295°
2026-05-06 20:11 43.06920 -86.04282 32000 ft 372 kts 295°
2026-05-06 20:12 43.09888 -86.10077 32005 ft 372 kts 295°
2026-05-06 20:12 43.12856 -86.15887 32006 ft 373 kts 295°
2026-05-06 20:13 43.15829 -86.21701 32020 ft 373 kts 295°
2026-05-06 20:13 43.18801 -86.27525 32040 ft 373 kts 295°
2026-05-06 20:14 43.21763 -86.33367 32024 ft 373 kts 295°
2026-05-06 20:14 43.24734 -86.39218 31955 ft 374 kts 295°
2026-05-06 20:15 43.26221 -86.42149 31701 ft 374 kts 295°
2026-05-06 20:15 43.27700 -86.45068 31450 ft 372 kts 295°
2026-05-06 20:15 43.29167 -86.47966 31203 ft 370 kts 295°
2026-05-06 20:15 43.30634 -86.50872 30959 ft 368 kts 295°
2026-05-06 20:16 43.32067 -86.53716 30720 ft 366 kts 295°
2026-05-06 20:16 43.33512 -86.56584 30475 ft 364 kts 295°
2026-05-06 20:16 43.34951 -86.59439 30245 ft 362 kts 295°
2026-05-06 20:16 43.36382 -86.62278 29995 ft 360 kts 295°
2026-05-06 20:17 43.37803 -86.65104 29721 ft 358 kts 295°
2026-05-06 20:17 43.39218 -86.67919 29474 ft 355 kts 294°
2026-05-06 20:17 43.40616 -86.70702 29189 ft 352 kts 294°
2026-05-06 20:17 43.42002 -86.73469 28909 ft 350 kts 294°
2026-05-06 20:18 43.43372 -86.76207 28596 ft 344 kts 294°
2026-05-06 20:18 43.44715 -86.78887 28162 ft 337 kts 294°
2026-05-06 20:18 43.46031 -86.81517 27749 ft 330 kts 294°
2026-05-06 20:18 43.47322 -86.84100 27315 ft 324 kts 293°
2026-05-06 20:19 43.48591 -86.86641 26908 ft 318 kts 293°
2026-05-06 20:19 43.49831 -86.89128 26506 ft 313 kts 293°
2026-05-06 20:19 43.51054 -86.91578 26125 ft 307 kts 293°
2026-05-06 20:19 43.52238 -86.93952 25761 ft 303 kts 292°
2026-05-06 20:20 43.53421 -86.96336 25398 ft 300 kts 292°
2026-05-06 20:20 43.54593 -86.98703 25037 ft 297 kts 292°
2026-05-06 20:20 43.55749 -87.01040 24681 ft 295 kts 292°
2026-05-06 20:20 43.56899 -87.03367 24332 ft 293 kts 292°
2026-05-06 20:21 43.58041 -87.05678 23983 ft 291 kts 292°
2026-05-06 20:21 43.59176 -87.07974 23639 ft 289 kts 292°
2026-05-06 20:21 43.60306 -87.10256 23269 ft 287 kts 292°
2026-05-06 20:21 43.61429 -87.12527 22908 ft 287 kts 292°
2026-05-06 20:22 43.62553 -87.14802 22558 ft 287 kts 292°
2026-05-06 20:22 43.63678 -87.17081 22214 ft 287 kts 293°
2026-05-06 20:22 43.64802 -87.19364 21859 ft 288 kts 293°
2026-05-06 20:22 43.65925 -87.21645 21510 ft 288 kts 294°
2026-05-06 20:23 43.67051 -87.23936 21151 ft 288 kts 294°
2026-05-06 20:23 43.68179 -87.26235 20788 ft 289 kts 294°
2026-05-06 20:23 43.69309 -87.28534 20435 ft 290 kts 295°
2026-05-06 20:23 43.70445 -87.30843 20064 ft 290 kts 295°
2026-05-06 20:24 43.71577 -87.33146 19718 ft 291 kts 296°
2026-05-06 20:24 43.72714 -87.35456 19325 ft 290 kts 296°
2026-05-06 20:24 43.73850 -87.37769 18953 ft 291 kts 297°
2026-05-06 20:24 43.74986 -87.40088 18582 ft 291 kts 297°
2026-05-06 20:25 43.76123 -87.42413 18187 ft 292 kts 297°
2026-05-06 20:25 43.77263 -87.44746 17781 ft 292 kts 298°
2026-05-06 20:25 43.78399 -87.47067 17407 ft 291 kts 298°
2026-05-06 20:25 43.79527 -87.49378 17042 ft 290 kts 298°
2026-05-06 20:26 43.80652 -87.51687 16697 ft 289 kts 298°
2026-05-06 20:26 43.81774 -87.53990 16311 ft 288 kts 298°
2026-05-06 20:26 43.82892 -87.56287 15944 ft 287 kts 298°
2026-05-06 20:26 43.84007 -87.58577 15584 ft 286 kts 298°
2026-05-06 20:27 43.85105 -87.60831 15229 ft 285 kts 299°
2026-05-06 20:27 43.86213 -87.63107 14870 ft 284 kts 299°
2026-05-06 20:27 43.87316 -87.65378 14514 ft 284 kts 299°
2026-05-06 20:27 43.88415 -87.67645 14150 ft 283 kts 299°
2026-05-06 20:28 43.89527 -87.69939 13780 ft 283 kts 299°
2026-05-06 20:28 43.90607 -87.72168 13389 ft 282 kts 300°
2026-05-06 20:28 43.91698 -87.74416 13022 ft 280 kts 300°
2026-05-06 20:28 43.92782 -87.76655 12653 ft 279 kts 300°
2026-05-06 20:29 43.93859 -87.78886 12316 ft 278 kts 300°
2026-05-06 20:29 43.94935 -87.81114 11947 ft 278 kts 300°
2026-05-06 20:29 43.96008 -87.83339 11598 ft 277 kts 300°
2026-05-06 20:29 43.97079 -87.85560 11211 ft 276 kts 301°
2026-05-06 20:30 43.98147 -87.87776 10844 ft 276 kts 301°
2026-05-06 20:30 44.00267 -87.92187 10300 ft 271 kts 301°
2026-05-06 20:30 44.01301 -87.94337 10218 ft 270 kts 301°
2026-05-06 20:31 44.02340 -87.96503 10086 ft 269 kts 301°
2026-05-06 20:31 44.03375 -87.98666 9904 ft 270 kts 301°
2026-05-06 20:31 44.04428 -88.00867 9399 ft 272 kts 301°
2026-05-06 20:31 44.05474 -88.03044 9047 ft 269 kts 302°
2026-05-06 20:32 44.06512 -88.05200 8657 ft 267 kts 302°
2026-05-06 20:32 44.07542 -88.07344 8264 ft 265 kts 302°
2026-05-06 20:32 44.08559 -88.09464 7602 ft 263 kts 302°
2026-05-06 20:32 44.09573 -88.11578 6883 ft 262 kts 302°
2026-05-06 20:33 44.10583 -88.13684 6164 ft 261 kts 302°
2026-05-06 20:33 44.11578 -88.15769 5515 ft 255 kts 302°
2026-05-06 20:33 44.12536 -88.17787 5097 ft 244 kts 302°
2026-05-06 20:33 44.13450 -88.19711 4682 ft 233 kts 302°
2026-05-06 20:34 44.14330 -88.21558 4258 ft 224 kts 302°
2026-05-06 20:34 44.15174 -88.23332 3848 ft 216 kts 302°
2026-05-06 20:34 44.15981 -88.25028 3430 ft 210 kts 302°
2026-05-06 20:34 44.16760 -88.26708 3048 ft 202 kts 298°
2026-05-06 20:35 44.17392 -88.28357 3031 ft 186 kts 296°
2026-05-06 20:35 44.17964 -88.29946 3028 ft 180 kts 295°
2026-05-06 20:35 44.18520 -88.31505 3028 ft 180 kts 295°
2026-05-06 20:35 44.19067 -88.33044 3047 ft 174 kts 295°
2026-05-06 20:36 44.19595 -88.34530 3037 ft 169 kts 295°
2026-05-06 20:36 44.20115 -88.35995 3029 ft 169 kts 295°
2026-05-06 20:36 44.20626 -88.37437 2964 ft 161 kts 295°
2026-05-06 20:36 44.21108 -88.38796 2822 ft 151 kts 295°
2026-05-06 20:37 44.21558 -88.40065 2652 ft 140 kts 295°
2026-05-06 20:37 44.21978 -88.41253 2468 ft 135 kts 295°
2026-05-06 20:37 44.22393 -88.42423 2278 ft 134 kts 295°
2026-05-06 20:37 44.22800 -88.43576 2091 ft 132 kts 295°
2026-05-06 20:38 44.23202 -88.44712 1916 ft 132 kts 295°
2026-05-06 20:38 44.23606 -88.45856 1724 ft 131 kts 295°
2026-05-06 20:38 44.24013 -88.47007 1518 ft 134 kts 295°
2026-05-06 20:38 44.24423 -88.48167 1328 ft 132 kts 296°
2026-05-06 20:39 44.24834 -88.49311 1157 ft 133 kts 297°
2026-05-06 20:39 44.25238 -88.50468 985 ft 132 kts 296°
2026-05-06 20:39 44.25628 -88.51576 902 ft 117 kts 296°
2026-05-06 20:39 44.25893 -88.52334 903 ft 43 kts 295°
2026-05-06 20:40 44.25975 -88.52475 902 ft 13 kts 358°
2026-05-06 20:40 44.26034 -88.52422 903 ft 9 kts 64°
2026-05-06 20:40 44.26021 -88.52353 903 ft 7 kts 114°
2026-05-06 20:40 44.25989 -88.52258 904 ft 11 kts 116°
2026-05-06 20:41 44.25952 -88.52157 901 ft 12 kts 117°
2026-05-06 20:41 44.25915 -88.52052 900 ft 12 kts 116°
2026-05-06 20:41 44.25883 -88.51962 901 ft 9 kts 116°
2026-05-06 20:41 44.25855 -88.51882 900 ft 9 kts 116°
2026-05-06 20:42 44.25831 -88.51794 898 ft 10 kts 89°
2026-05-06 20:42 44.25852 -88.51695 895 ft 12 kts 73°
2026-05-06 20:42 44.25878 -88.51566 889 ft 13 kts 74°
2026-05-06 20:42 44.25901 -88.51454 889 ft 10 kts 74°
2026-05-06 20:43 44.25936 -88.51419 889 ft 5 kts
2026-05-06 20:43 44.25960 -88.51420 889 ft 3 kts 359°
2026-05-06 20:43 44.25964 -88.51420 889 ft 0 kts 359°